| time (UTC) | temp C | wind direction | speed KPH | gust KPH | rain 1hr cm | rain 24hr cm | rain mn cm | humidity % | barometer mb |
| 20260503004543 | 13 | 359 | 11.3 | 17.7 | 0.00 | 0.00 | 0.00 | 39 | 1019.8 |
| 20260503003052 | 13 | 237 | 11.3 | 17.7 | 0.00 | 0.00 | 0.00 | 38 | 1019.9 |
| 20260503001511 | 14 | 243 | 14.5 | 24.1 | 0.00 | 0.00 | 0.00 | 36 | 1020.0 |
| 20260503000016 | 14 | 231 | 14.5 | 25.7 | 0.00 | 0.00 | 0.00 | 34 | 1019.9 |
| 20260502234531 | 15 | 249 | 12.9 | 29.0 | 0.00 | 0.00 | 0.00 | 33 | 1020.3 |
| 20260502233041 | 15 | 250 | 20.9 | 30.6 | 0.00 | 0.00 | 0.00 | 32 | 1020.4 |
| 20260502231601 | 15 | 268 | 22.5 | 35.4 | 0.00 | 0.00 | 0.00 | 32 | 1020.6 |
| 20260502230051 | 15 | 228 | 19.3 | 33.8 | 0.00 | 0.00 | 0.00 | 31 | 1020.8 |
| 20260502224504 | 15 | 248 | 14.5 | 32.2 | 0.00 | 0.00 | 0.00 | 32 | 1020.9 |
| 20260502223009 | 15 | 223 | 22.5 | 33.8 | 0.00 | 0.00 | 0.00 | 32 | 1021.0 |
| 20260502221522 | 15 | 244 | 19.3 | 38.6 | 0.00 | 0.00 | 0.00 | 32 | 1021.2 |
| 20260502220035 | 15 | 263 | 20.9 | 35.4 | 0.00 | 0.00 | 0.00 | 31 | 1021.3 |
| 20260502214541 | 15 | 293 | 19.3 | 38.6 | 0.00 | 0.00 | 0.00 | 33 | 1021.3 |
| 20260502213052 | 15 | 237 | 17.7 | 30.6 | 0.00 | 0.00 | 0.00 | 31 | 1021.4 |
| 20260502211608 | 15 | 244 | 17.7 | 29.0 | 0.00 | 0.00 | 0.00 | 33 | 1021.6 |
| 20260502210007 | 15 | 281 | 16.1 | 38.6 | 0.00 | 0.00 | 0.00 | 33 | 1021.7 |
| 20260502204520 | 15 | 260 | 11.3 | 32.2 | 0.00 | 0.00 | 0.00 | 32 | 1021.8 |
| 20260502203026 | 15 | 239 | 16.1 | 32.2 | 0.00 | 0.00 | 0.00 | 32 | 1022.1 |
| 20260502201539 | 14 | 260 | 19.3 | 29.0 | 0.00 | 0.00 | 0.00 | 35 | 1022.5 |
| 20260502200044 | 14 | 258 | 14.5 | 30.6 | 0.00 | 0.00 | 0.00 | 33 | 1022.7 |
| 20260502194557 | 13 | 264 | 9.7 | 25.7 | 0.00 | 0.00 | 0.00 | 32 | 1023.0 |
| 20260502193002 | 13 | 271 | 11.3 | 30.6 | 0.00 | 0.00 | 0.00 | 34 | 1023.1 |
| 20260502191521 | 13 | 210 | 12.9 | 32.2 | 0.00 | 0.00 | 0.00 | 32 | 1023.2 |
| 20260502190020 | 13 | 220 | 11.3 | 25.7 | 0.00 | 0.00 | 0.00 | 34 | 1023.4 |
| 20260502184534 | 13 | 233 | 17.7 | 33.8 | 0.00 | 0.00 | 0.00 | 33 | 1023.6 |
| 20260502183042 | 13 | 303 | 6.4 | 17.7 | 0.00 | 0.00 | 0.00 | 36 | 1023.7 |
| 20260502181554 | 13 | 282 | 11.3 | 25.7 | 0.00 | 0.00 | 0.00 | 35 | 1023.9 |
| 20260502163010 | 11 | 359 | 12.9 | 27.4 | 0.00 | 0.00 | 0.00 | 38 | 1025.1 |
| 20260502161514 | 11 | 285 | 9.7 | 27.4 | 0.00 | 0.00 | 0.00 | 42 | 1025.2 |
| 20260502151611 | 10 | 359 | 14.5 | 24.1 | 0.00 | 0.00 | 0.00 | 49 | 1025.5 |
| 20260502123045 | 1 | 359 | 1.6 | 3.2 | 0.00 | 0.00 | 0.00 | 87 | 1025.6 |
| 20260502121554 | 0 | 359 | 1.6 | 3.2 | 0.00 | 0.00 | 0.00 | 87 | 1025.5 |
| 20260502114509 | -1 | 359 | 0.0 | 3.2 | 0.00 | 0.00 | 0.00 | 87 | 1025.4 |
| 20260502113023 | -1 | 359 | 0.0 | 4.8 | 0.00 | 0.00 | 0.00 | 87 | 1025.2 |
| 20260502111527 | -1 | 359 | 1.6 | 3.2 | 0.00 | 0.00 | 0.00 | 87 | 1025.0 |
| 20260502110039 | -1 | 359 | 0.0 | 1.6 | 0.00 | 0.00 | 0.00 | 86 | 1025.0 |
| 20260502104551 | 0 | 359 | 1.6 | 3.2 | 0.00 | 0.00 | 0.00 | 86 | 1024.8 |
| 20260502103108 | 0 | 359 | 0.0 | 0.0 | 0.00 | 0.00 | 0.00 | 86 | 1024.8 |
| 20260502101503 | 0 | 359 | 0.0 | 1.6 | 0.00 | 0.00 | 0.00 | 86 | 1024.7 |
| 20260502090112 | 1 | 359 | 0.0 | 1.6 | 0.00 | 0.00 | 0.00 | 79 | 1024.5 |
| 20260502070029 | 1 | 359 | 1.6 | 3.2 | 0.00 | 0.00 | 0.00 | 76 | 1025.0 |
| 20260502064548 | 1 | 359 | 1.6 | 3.2 | 0.00 | 0.00 | 0.00 | 76 | 1025.0 |
| 20260502063051 | 1 | 359 | 1.6 | 3.2 | 0.00 | 0.00 | 0.00 | 77 | 1025.1 |
| 20260502061504 | 2 | 359 | 0.0 | 1.6 | 0.00 | 0.00 | 0.00 | 75 | 1025.1 |
| 20260502060011 | 2 | 359 | 1.6 | 4.8 | 0.00 | 0.00 | 0.00 | 75 | 1025.0 |
| 20260502054523 | 2 | 359 | 1.6 | 3.2 | 0.00 | 0.00 | 0.00 | 76 | 1024.9 |
| 20260502053033 | 2 | 359 | 0.0 | 1.6 | 0.00 | 0.00 | 0.00 | 76 | 1024.9 |
| 20260502051607 | 2 | 359 | 0.0 | 3.2 | 0.00 | 0.00 | 0.00 | 75 | 1024.8 |
| 20260502050058 | 2 | 359 | 0.0 | 4.8 | 0.00 | 0.00 | 0.00 | 74 | 1024.7 |
| 20260502044605 | 2 | 359 | 0.0 | 1.6 | 0.00 | 0.00 | 0.00 | 72 | 1024.5 |
| 20260502043006 | 3 | 359 | 3.2 | 4.8 | 0.00 | 0.00 | 0.00 | 71 | 1024.4 |
| 20260502041513 | 3 | 359 | 1.6 | 3.2 | 0.00 | 0.00 | 0.00 | 68 | 1024.1 |
| 20260502040024 | 5 | 359 | 3.2 | 6.4 | 0.00 | 0.00 | 0.00 | 63 | 1024.1 |
| 20260502034541 | 5 | 359 | 1.6 | 4.8 | 0.00 | 0.00 | 0.00 | 64 | 1024.1 |
| 20260502033051 | 5 | 359 | 3.2 | 6.4 | 0.00 | 0.00 | 0.00 | 60 | 1023.9 |
| 20260502031608 | 6 | 359 | 3.2 | 4.8 | 0.00 | 0.00 | 0.00 | 58 | 1023.7 |
| 20260502030007 | 6 | 359 | 1.6 | 4.8 | 0.00 | 0.00 | 0.00 | 57 | 1023.7 |
| 20260502024512 | 6 | 359 | 1.6 | 4.8 | 0.00 | 0.00 | 0.00 | 57 | 1023.5 |
| 20260502023029 | 7 | 359 | 3.2 | 6.4 | 0.00 | 0.00 | 0.00 | 56 | 1023.3 |
| 20260502021534 | 7 | 359 | 3.2 | 6.4 | 0.00 | 0.00 | 0.00 | 54 | 1023.2 |
| 20260502020100 | 7 | 359 | 3.2 | 6.4 | 0.00 | 0.00 | 0.00 | 52 | 1023.0 |
| 20260502014552 | 8 | 359 | 3.2 | 9.7 | 0.00 | 0.00 | 0.00 | 51 | 1022.8 |
| 20260502013004 | 8 | 359 | 3.2 | 6.4 | 0.00 | 0.00 | 0.00 | 49 | 1022.5 |
| 20260502011516 | 9 | 359 | 3.2 | 9.7 | 0.00 | 0.00 | 0.00 | 48 | 1022.5 |
| 20260502010026 | 10 | 359 | 8.0 | 16.1 | 0.00 | 0.00 | 0.00 | 45 | 1022.3 |